Regional Weather Roundup
Issued by NWS Green Bay, WI

Home | Current Version | Previous Version | Text Only | Print | Product List | Glossary On
Versions: 1 2 3 4 5 6 7 8 9 10 11 12 13 14 15 16 17 18 19 20 21 22 23 24 25 26 27 28 29 30 31 32 33 34 35 36 37 38 39 40 41 42 43 44 45 46 47 48 49 50
077
ASUS43 KGRB 271011
RWRGRB

NORTH-CENTRAL AND NORTHEAST WISCONSIN REGIONAL WEATHER ROUNDUP
NATIONAL WEATHER SERVICE GREEN BAY WI
500 AM CDT MON MAR 27 2017

WIZ005-009-010>012-018-019-271100-
NORTH CENTRAL WISCONSIN

CITY           SKY/WX    TMP DP  RH WIND       PRES   REMARKS
IRONWOOD       FOG       32  31  96 NW6       29.93R VSB 1/4
MANITOWISH WTR CLOUDY    31  31 100 N6        29.90R FOG
ARBOR VITAE    CLOUDY    34  33  96 NW7       29.89R
EAGLE RIVER    CLOUDY    32  32 100 N5        29.87S
LAND O LAKES   CLOUDY    32  32 100 N5        29.90R
RHINELANDER    CLOUDY    34  34 100 VRB3      29.89R FOG
PHILLIPS       LGT RAIN  32  32 100 CALM      29.89S
ANTIGO         CLOUDY    34  34 100 NW5       29.88R FOG
TOMAHAWK       LGT RAIN  32  31  98 NW3       29.90R
MERRILL        CLOUDY    34  34 100 N6        29.90R
$$

WIZ013-073-271100-
NORTHEAST WISCONSIN

CITY           SKY/WX    TMP DP  RH WIND       PRES   REMARKS
IRON MOUNTAIN  CLOUDY    34  31  88 NW5       29.86R
MARINETTE        N/A    N/A N/A N/A MISG        N/A
OCONTO         CLOUDY    36  36  98 W3        29.89R
$$

WIZ017-030-035>037-045-271100-
CENTRAL WISCONSIN

CITY           SKY/WX    TMP DP  RH WIND       PRES   REMARKS
MEDFORD        CLOUDY    33  33  97 NW3       29.90R
WAUSAU         CLOUDY    37  35  92 NW5       29.88R
MOSINEE        CLOUDY    36  36 100 NW3       29.90R
MARSHFIELD     FOG       38  36  92 NW3       29.89R VSB 1/4
WISC RAPIDS    CLOUDY    39  39 100 W5        29.91R FOG
STEVENS POINT  CLOUDY    37  37 100 CALM      29.90R
WAUPACA        CLOUDY    40  39  97 CALM      29.90R FOG
SHAWANO        CLOUDY    39  37  95 SW5       29.90R
CLINTONVILLE   CLOUDY    36  36 100 CALM      29.89R FOG
WAUTOMA        CLOUDY    39  39 100 W3        29.90R FOG
$$

WIZ038-039-048-051-271100-
FOX VALLEY

CITY           SKY/WX    TMP DP  RH WIND       PRES   REMARKS
NWS GREEN BAY  CLOUDY    38  38 100 W6        29.90R
APPLETON       CLOUDY    36  36 100 W3        29.89R
OSHKOSH        CLOUDY    38  37  97 NW3       29.89R
FOND DU LAC    CLOUDY    39  36  89 NW3       29.89S
$$

WIZ022-050-052-271100-
EAST CENTRAL WISCONSIN

CITY           SKY/WX    TMP DP  RH WIND       PRES   REMARKS
EPHRAIM        CLOUDY    34  34 100 NW5       29.88R
WASHINGTON ISL CLOUDY    33  33  96 NW6       29.87R
STURGEON BAY   CLOUDY    36  36 100 NW6       29.89R FOG
MANITOWOC      CLOUDY    38  36  92 W6        29.90R
SHEBOYGAN      CLOUDY    38  36  92 NW7       29.88S
$$

LMZ563-521-522-541>543-271100-
LAKESHORE

STATION/POSITION TIME  TEMP    WIND        PRES    VSBY  WAVE
                       AIR SEA DIR/SP/G                  HT/PER
                 (UTC) (F)     (DEG/KT/KT) (MB)    (MI)  (FT/S)
SHEBOYGAN LKSHOR 1000   39     340/  6/  7 1012.4F
KEWAUNEE LKSHORE 0948   36     290/  1/  3 1011.5R
NORTHPORT PIER   0930   34     310/  3/  8 1011.2R
CHAMBERS ISLAND  0940   34     260/  3/  6 1011.9R
MENOMINEE LKSHOR 0948   36     310/  3/  5 1011.0R
$$




USA.gov is the U.S. government's official web portal to all federal, state and local government web resources and services.